Change the Weather History Date:

Monday, April 8, 2013

  Actual Average (KBCB) Record (KBCB)
Temperature  
Mean Temperature 58 °F 48 °F  
Max Temperature 75 °F 61 °F 80 °F (2001)
Min Temperature 42 °F 36 °F 18 °F (1982)
Degree Days  
Heating Degree Days 6 17  
Month to date heating degree days 141  
Since 1 July heating degree days 4916  
Cooling Degree Days 0 0  
Month to date cooling degree days 0  
Year to date cooling degree days 0  
Growing Degree Days 8 (Base 50)    
Moisture  
Dew Point 45 °F    
Average Humidity 62    
Maximum Humidity 100    
Minimum Humidity 27    
Precipitation  
Precipitation 0.00 in 0.12 in 2.30 in (1972)
Month to date precipitation 0.93  
Year to date precipitation 10.46  
Snow  
Snow 0.00 in - - ()
Month to date snowfall  
Since 1 July snowfall  
Snow Depth -    
Sea Level Pressure  
Sea Level Pressure 30.12 in    
Wind  
Wind Speed 4 mph (SSW)    
Max Wind Speed 16 mph    
Max Gust Speed 20 mph    
Visibility 10 miles    
Events      
T = Trace of Precipitation, MM = Missing Value Source: NWS Daily Summary

Daily Weather History Graph

Daily Weather History Graph

Search for Another Location

Airport or City:

Trip Planner

Search our weather history database for the weather conditions in past years. The results will help you decide how hot, cold, wet, or windy it might be!

Date:

Astronomy

Apr. 08, 2013 Rise Set
Actual Time 6:57 AM EDT 7:51 PM EDT
Civil Twilight 6:31 AM EDT 8:18 PM EDT
Nautical Twilight 6:00 AM EDT 8:49 PM EDT
Astronomical Twilight 5:27 AM EDT 9:22 PM EDT
Moon 5:45 AM EDT (4/8) 6:25 PM EDT (4/8)
Length of Visible Light 13h 46m
Length of Day
12h 53m
Waning Crescent, 3% of the Moon is Illuminated
Apr 8
Waning Crescent
Apr 10
New
Apr 18
First Quarter
Apr 25
Full
May 2
Last Quarter

Hourly Weather History & Observations

Time (EDT) Temp. Windchill Dew Point Humidity Pressure Visibility Wind Dir Wind Speed Gust Speed Precip Events Conditions
12:15 AM 50.0 °F - 42.8 °F 76% 30.13 in 10.0 mi SW 6.9 mph - N/A   Clear
12:35 AM 51.8 °F - 44.6 °F 76% 30.14 in 10.0 mi WSW 4.6 mph - N/A   Clear
12:55 AM 51.8 °F - 42.8 °F 71% 30.13 in 10.0 mi SSW 4.6 mph - N/A   Clear
1:15 AM 48.2 °F - 42.8 °F 82% 30.13 in 10.0 mi Calm Calm - N/A   Clear
1:35 AM 48.2 °F - 42.8 °F 82% 30.14 in 10.0 mi Calm Calm - N/A   Clear
1:55 AM 48.2 °F - 42.8 °F 82% 30.14 in 10.0 mi Calm Calm - N/A   Clear
2:15 AM 46.4 °F - 42.8 °F 87% 30.13 in 10.0 mi Calm Calm - N/A   Clear
2:35 AM 46.4 °F - 42.8 °F 87% 30.13 in 10.0 mi Calm Calm - N/A   Clear
2:55 AM 46.4 °F - 42.8 °F 87% 30.12 in 10.0 mi Calm Calm - N/A   Clear
3:15 AM 42.8 °F 41.1 °F 41.0 °F 93% 30.12 in 10.0 mi West 3.5 mph - N/A   Clear
3:35 AM 42.8 °F - 42.8 °F 100% 30.12 in 10.0 mi Calm Calm - N/A   Clear
3:55 AM 44.6 °F - 42.8 °F 93% 30.12 in 10.0 mi Calm Calm - N/A   Clear
4:15 AM 44.6 °F - 42.8 °F 93% 30.12 in 10.0 mi Calm Calm - N/A   Clear
4:35 AM 44.6 °F - 44.6 °F 100% 30.13 in 10.0 mi Calm Calm - N/A   Scattered Clouds
4:55 AM 46.4 °F - 44.6 °F 93% 30.13 in 10.0 mi Calm Calm - N/A   Mostly Cloudy
5:15 AM 44.6 °F - 42.8 °F 93% 30.13 in 10.0 mi Calm Calm - N/A   Mostly Cloudy
5:35 AM 46.4 °F - 42.8 °F 87% 30.13 in 10.0 mi Calm Calm - N/A   Mostly Cloudy
5:55 AM 44.6 °F - 41.0 °F 87% 30.13 in 10.0 mi Calm Calm - N/A   Overcast
6:15 AM 42.8 °F - 42.8 °F 100% 30.13 in 10.0 mi Calm Calm - N/A   Scattered Clouds
6:35 AM 42.8 °F - 41.0 °F 93% 30.14 in 10.0 mi Calm Calm - N/A   Clear
6:55 AM 46.4 °F - 42.8 °F 87% 30.15 in 10.0 mi Calm Calm - N/A   Clear
7:15 AM 42.8 °F - 41.0 °F 93% 30.16 in 10.0 mi Calm Calm - N/A   Clear
7:35 AM 42.8 °F - 39.2 °F 87% 30.16 in 10.0 mi Calm Calm - N/A   Clear
8:15 AM 46.4 °F - 44.6 °F 93% 30.17 in 10.0 mi Calm Calm - N/A   Clear
8:35 AM 48.2 °F - 46.4 °F 93% 30.17 in 10.0 mi Calm Calm - N/A   Clear
8:55 AM 51.8 °F - 46.4 °F 82% 30.18 in 10.0 mi Calm Calm - N/A   Clear
9:15 AM 53.6 °F - 46.4 °F 77% 30.17 in 10.0 mi Calm Calm - N/A   Clear
9:35 AM 57.2 °F - 46.4 °F 67% 30.17 in 10.0 mi Calm Calm - N/A   Clear
9:55 AM 57.2 °F - 44.6 °F 63% 30.17 in 10.0 mi Calm Calm - N/A   Clear
10:15 AM 60.8 °F - 44.6 °F 55% 30.17 in 10.0 mi Calm Calm - N/A   Clear
10:35 AM 62.6 °F - 44.6 °F 52% 30.17 in 10.0 mi Calm Calm - N/A   Clear
10:55 AM 64.4 °F - 44.6 °F 49% 30.17 in 10.0 mi SSW 5.8 mph - N/A   Clear
11:15 AM 66.2 °F - 44.6 °F 46% 30.17 in 10.0 mi South 3.5 mph - N/A   Clear
11:35 AM 66.2 °F - 44.6 °F 46% 30.16 in 10.0 mi SSW 8.1 mph - N/A   Clear
11:55 AM 69.8 °F - 42.8 °F 38% 30.15 in 10.0 mi SSW 9.2 mph - N/A   Clear
12:15 PM 69.8 °F - 44.6 °F 40% 30.14 in 10.0 mi South 8.1 mph - N/A   Clear
12:35 PM 71.6 °F - 44.6 °F 38% 30.14 in 10.0 mi SW 9.2 mph - N/A   Clear
12:55 PM 71.6 °F - 44.6 °F 38% 30.13 in 10.0 mi SW 16.1 mph - N/A   Clear
1:15 PM 73.4 °F - 46.4 °F 38% 30.13 in 10.0 mi SW 9.2 mph - N/A   Clear
1:35 PM 73.4 °F - 42.8 °F 33% 30.12 in 10.0 mi South 11.5 mph 17.3 mph N/A   Clear
1:55 PM 73.4 °F - 42.8 °F 33% 30.11 in 10.0 mi SW 6.9 mph - N/A   Clear
2:15 PM 73.4 °F - 42.8 °F 33% 30.09 in 10.0 mi SW 8.1 mph - N/A   Scattered Clouds
2:35 PM 75.2 °F - 42.8 °F 31% 30.09 in 10.0 mi SSW 11.5 mph - N/A   Clear
2:55 PM 73.4 °F - 42.8 °F 33% 30.08 in 10.0 mi South 9.2 mph 16.1 mph N/A   Scattered Clouds
3:15 PM 75.2 °F - 42.8 °F 31% 30.07 in 10.0 mi SSW 10.4 mph - N/A   Scattered Clouds
3:35 PM 73.4 °F - 41.0 °F 31% 30.07 in 10.0 mi South 9.2 mph - N/A   Clear
3:55 PM 75.2 °F - 39.2 °F 27% 30.06 in 10.0 mi South 11.5 mph 18.4 mph N/A   Clear
4:15 PM 75.2 °F - 41.0 °F 29% 30.06 in 10.0 mi South 10.4 mph 19.6 mph N/A   Clear
4:35 PM 75.2 °F - 42.8 °F 31% 30.06 in 10.0 mi South 12.7 mph 17.3 mph N/A   Scattered Clouds
4:55 PM 75.2 °F - 44.6 °F 34% 30.05 in 10.0 mi SSW 12.7 mph 17.3 mph N/A   Scattered Clouds
5:15 PM 75.2 °F - 44.6 °F 34% 30.05 in 10.0 mi South 10.4 mph - N/A   Clear
5:35 PM 75.2 °F - 46.4 °F 36% 30.05 in 10.0 mi South 10.4 mph 18.4 mph N/A   Clear
5:55 PM 73.4 °F - 46.4 °F 38% 30.05 in 10.0 mi South 12.7 mph - N/A   Clear
6:15 PM 71.6 °F - 48.2 °F 43% 30.06 in 10.0 mi SSW 10.4 mph 16.1 mph N/A   Clear
6:35 PM 71.6 °F - 48.2 °F 43% 30.06 in 10.0 mi South 10.4 mph 18.4 mph N/A   Scattered Clouds
6:55 PM 71.6 °F - 48.2 °F 43% 30.06 in 10.0 mi South 9.2 mph - N/A   Clear
7:15 PM 71.6 °F - 48.2 °F 43% 30.07 in 10.0 mi SSW 9.2 mph - N/A   Clear
7:35 PM 69.8 °F - 48.2 °F 46% 30.07 in 10.0 mi South 10.4 mph - N/A   Clear
7:55 PM 68.0 °F - 48.2 °F 49% 30.07 in 10.0 mi SSW 10.4 mph - N/A   Clear
8:15 PM 66.2 °F - 48.2 °F 52% 30.08 in 10.0 mi SSW 6.9 mph - N/A   Clear
8:35 PM 66.2 °F - 48.2 °F 52% 30.09 in 10.0 mi SSW 5.8 mph - N/A   Clear
8:55 PM 64.4 °F - 48.2 °F 56% 30.09 in 10.0 mi SSW 8.1 mph - N/A   Clear
9:15 PM 64.4 °F - 48.2 °F 56% 30.09 in 10.0 mi SSW 6.9 mph - N/A   Clear
9:35 PM 64.4 °F - 48.2 °F 56% 30.09 in 10.0 mi SSW 9.2 mph - N/A   Clear
9:55 PM 64.4 °F - 48.2 °F 56% 30.10 in 10.0 mi SSW 9.2 mph - N/A   Clear
10:15 PM 64.4 °F - 48.2 °F 56% 30.10 in 10.0 mi SSW 9.2 mph - N/A   Clear
10:35 PM 60.8 °F - 48.2 °F 63% 30.12 in 10.0 mi West 4.6 mph - N/A   Clear
10:55 PM 59.0 °F - 48.2 °F 67% 30.12 in 10.0 mi SW 4.6 mph - N/A   Clear
11:15 PM 57.2 °F - 48.2 °F 72% 30.12 in 10.0 mi WSW 5.8 mph - N/A   Clear
11:35 PM 55.4 °F - 48.2 °F 77% 30.12 in 10.0 mi SW 5.8 mph - N/A   Clear
11:55 PM 55.4 °F - 48.2 °F 77% 30.12 in 10.0 mi SW 3.5 mph - N/A   Clear